LRCL Weather Reports


time (UTC)temp
C
wind
direction
speed
KPH
gust
KPH
rain 1hr
cm
rain 24hr
cm
rain mn
cm
humidity
%
barometer
mb
20260507134808 17 280 16.1 0.0 0.00 0.00 0.00 88 1014.0
20260507133308 17 280 16.1 0.0 0.00 0.00 0.00 88 1014.0
20260507130308 21 270 9.7 0.0 0.00 0.00 0.00 57 1013.0
20260507124808 22 4.8 0.0 0.00 0.00 0.00 44 1013.0
20260507123346 22 4.8 0.0 0.00 0.00 0.00 44 1013.0
20260507121808 23 3.2 0.0 0.00 0.00 0.00 47 1014.0
20260507120308 23 3.2 0.0 0.00 0.00 0.00 47 1014.0
20260507114808 22 3.2 0.0 0.00 0.00 0.00 50 1014.0
20260507113323 22 1.6 0.0 0.00 0.00 0.00 53 1014.0
20260507111808 22 1.6 0.0 0.00 0.00 0.00 53 1014.0
20260507110308 22 1.6 0.0 0.00 0.00 0.00 53 1014.0
20260507104807 20 3.2 0.0 0.00 0.00 0.00 56 1014.0
20260507103308 20 3.2 0.0 0.00 0.00 0.00 56 1014.0
20260507101808 18 1.6 0.0 0.00 0.00 0.00 60 1014.0
20260507100308 18 1.6 0.0 0.00 0.00 0.00 60 1014.0
20260507094808 16 280 4.8 0.0 0.00 0.00 0.00 68 1015.0
20260507093308 16 280 4.8 0.0 0.00 0.00 0.00 68 1015.0
20260507091809 15 0 0.0 0.0 0.00 0.00 0.00 77 1015.0
20260507090308 15 0 0.0 0.0 0.00 0.00 0.00 77 1015.0
20260507084808 15 0 0.0 0.0 0.00 0.00 0.00 72 1015.0
20260507083308 15 0 0.0 0.0 0.00 0.00 0.00 72 1015.0
20260507081808 15 250 1.6 0.0 0.00 0.00 0.00 68 1015.0
20260507080309 15 250 1.6 0.0 0.00 0.00 0.00 68 1015.0
20260507074808 15 280 1.6 0.0 0.00 0.00 0.00 68 1015.0
20260507073308 15 280 1.6 0.0 0.00 0.00 0.00 68 1015.0
20260507071808 15 1.6 0.0 0.00 0.00 0.00 68 1014.0
20260507070308 15 1.6 0.0 0.00 0.00 0.00 68 1014.0
20260507064808 13 0 0.0 0.0 0.00 0.00 0.00 67 1014.0
20260507063308 13 0 0.0 0.0 0.00 0.00 0.00 67 1014.0
20260507061820 13 0 0.0 0.0 0.00 0.00 0.00 67 1014.0
20260507060308 13 0 0.0 0.0 0.00 0.00 0.00 67 1014.0
20260507054808 12 80 1.6 0.0 0.00 0.00 0.00 72 1014.0
20260507053315 12 80 1.6 0.0 0.00 0.00 0.00 72 1014.0
20260507051808 12 1.6 0.0 0.00 0.00 0.00 72 1014.0
20260507050308 12 1.6 0.0 0.00 0.00 0.00 72 1014.0
20260507044808 11 0 0.0 0.0 0.00 0.00 0.00 82 1014.0
20260507043308 11 0 0.0 0.0 0.00 0.00 0.00 82 1014.0
20260507041808 8 0 0.0 0.0 0.00 0.00 0.00 87 1014.0
20260507040308 8 0 0.0 0.0 0.00 0.00 0.00 87 1014.0
20260507034808 8 1.6 0.0 0.00 0.00 0.00 87 1014.0
20260507033307 8 1.6 0.0 0.00 0.00 0.00 87 1014.0
20260507031808 8 80 1.6 0.0 0.00 0.00 0.00 87 1014.0
20260507030308 8 80 1.6 0.0 0.00 0.00 0.00 87 1014.0
20260507024808 8 0 0.0 0.0 0.00 0.00 0.00 87 1013.0
20260507023307 8 0 0.0 0.0 0.00 0.00 0.00 87 1013.0
20260507021808 8 0 0.0 0.0 0.00 0.00 0.00 87 1013.0
20260507020308 8 0 0.0 0.0 0.00 0.00 0.00 87 1013.0
20260507014808 10 240 1.6 0.0 0.00 0.00 0.00 82 1013.0
20260507013307 10 240 1.6 0.0 0.00 0.00 0.00 82 1013.0
20260507011808 11 240 4.8 0.0 0.00 0.00 0.00 77 1013.0
20260507010308 11 240 4.8 0.0 0.00 0.00 0.00 77 1013.0
20260507004807 10 260 4.8 0.0 0.00 0.00 0.00 82 1013.0
20260507003308 10 260 4.8 0.0 0.00 0.00 0.00 82 1013.0
20260507001808 11 260 4.8 0.0 0.00 0.00 0.00 77 1013.0
20260507000308 11 260 4.8 0.0 0.00 0.00 0.00 77 1013.0
20260506234808 12 240 4.8 0.0 0.00 0.00 0.00 72 1013.0
20260506233308 12 240 4.8 0.0 0.00 0.00 0.00 72 1013.0
20260506231808 12 270 8.0 0.0 0.00 0.00 0.00 77 1013.0
20260506230308 12 270 8.0 0.0 0.00 0.00 0.00 77 1013.0
20260506224807 13 230 4.8 0.0 0.00 0.00 0.00 63 1013.0
20260506223308 13 230 4.8 0.0 0.00 0.00 0.00 63 1013.0
20260506221808 12 270 8.0 0.0 0.00 0.00 0.00 67 1013.0
20260506220307 12 270 8.0 0.0 0.00 0.00 0.00 67 1013.0
20260506214824 15 250 4.8 0.0 0.00 0.00 0.00 63 1013.0
20260506213308 15 250 4.8 0.0 0.00 0.00 0.00 63 1013.0
20260506211808 13 260 8.0 0.0 0.00 0.00 0.00 67 1013.0
20260506210307 13 260 8.0 0.0 0.00 0.00 0.00 67 1013.0
20260506204809 16 3.2 0.0 0.00 0.00 0.00 59 1012.0
20260506203308 16 3.2 0.0 0.00 0.00 0.00 59 1012.0
20260506201808 16 3.2 0.0 0.00 0.00 0.00 59 1012.0
20260506200308 16 3.2 0.0 0.00 0.00 0.00 59 1012.0
20260506194827 17 250 4.8 0.0 0.00 0.00 0.00 49 1012.0
20260506193331 17 250 4.8 0.0 0.00 0.00 0.00 49 1012.0
20260506191808 18 0 0.0 0.0 0.00 0.00 0.00 46 1012.0
20260506190308 18 0 0.0 0.0 0.00 0.00 0.00 46 1012.0
20260506184813 20 4.8 0.0 0.00 0.00 0.00 43 1011.0
20260506183308 20 4.8 0.0 0.00 0.00 0.00 43 1011.0
20260506181808 20 310 12.9 0.0 0.00 0.00 0.00 43 1011.0
20260506180308 20 310 12.9 0.0 0.00 0.00 0.00 43 1011.0
20260506174808 21 330 11.3 0.0 0.00 0.00 0.00 43 1011.0
20260506173308 21 330 11.3 0.0 0.00 0.00 0.00 43 1011.0
20260506171808 22 330 11.3 0.0 0.00 0.00 0.00 41 1010.0
20260506170308 22 330 11.3 0.0 0.00 0.00 0.00 41 1010.0
20260506164808 25 330 11.3 0.0 0.00 0.00 0.00 32 1010.0
20260506163308 25 330 11.3 0.0 0.00 0.00 0.00 32 1010.0
20260506161808 26 300 9.7 0.0 0.00 0.00 0.00 28 1010.0
20260506160308 26 300 9.7 0.0 0.00 0.00 0.00 28 1010.0
20260506154808 26 310 12.9 0.0 0.00 0.00 0.00 26 1010.0
20260506153308 26 310 12.9 0.0 0.00 0.00 0.00 26 1010.0
20260506151808 25 320 12.9 0.0 0.00 0.00 0.00 30 1010.0
20260506150314 25 320 12.9 0.0 0.00 0.00 0.00 30 1010.0
20260506144808 27 240 17.7 0.0 0.00 0.00 0.00 23 1010.0
20260506143319 27 240 17.7 0.0 0.00 0.00 0.00 23 1010.0
20260506141808 27 170 16.1 0.0 0.00 0.00 0.00 21 1010.0
20260506140422 27 170 16.1 0.0 0.00 0.00 0.00 21 1010.0